SCP
0 0 0 0 0 0 0 0 0 0 0 0 0 0 0 1 1 1 1 1 1 1 1 1 1 1 1 1 1 1 1 1 1 1 1 1 1 1 1 1 1 1 1 1
0 0 0 0 0 0 0 0 0 0 0 1 1 1 1 1 1 1 1 1 1 1 1 1 1 1 1 1 1 2 2 1 1 1 1 1 1 1 1 1 1 1 1 1
0 0 0 0 0 0 0 0 0 0 1 1 1 1 1 1 1 1 1 1 1 1 1 1 1 1 1 1 1 1 1 1 1 1 1 1 1 1 1 1 1 1 1 1
0 0 0 0 0 0 0 0 1 1 1 1 1 1 1 1 1 1 1 1 1 1 1 1 1 1 1 1 1 1 1 1 1 1 1 1 1 2 2 1 1 1 1 1
0 0 0 0 0 0 0 1 1 1 1 1 1 1 1 1 1 1 1 1 1 1 1 1 1 1 1 1 1 1 1 1 1 1 1 1 1 2 2 1 1 1 1 1
0 0 0 0 0 0 1 1 1 1 1 1 1 1 1 1 1 1 1 1 1 1 1 1 1 1 1 1 1 1 1 1 1 1 1 1 1 1 1 1 1 1 1 1
0 0 0 0 1 1 1 1 1 1 1 1 1 1 1 1 1 1 1 1 1 1 1 1 1 1 1 1 1 1 1 1 1 1 1 1 1 1 1 1 1 1 1 1
0 0 0 1 1 1 1 1 1 1 1 1 1 1 1 1 1 1 1 1 1 1 1 1 1 1 1 1 1 1 1 1 1 1 1 1 1 1 1 1 1 1 1 1
0 1 1 1 1 1 1 1 1 1 1 1 1 1 1 1 1 1 1 1 1 1 1 1 1 1 1 1 1 1 1 1 1 1 1 1 1 1 1 1 1 1 1 1
1 1 1 1 1 1 1 1 1 1 1 1 1 1 1 1 1 1 1 1 1 1 1 1 1 1 1 1 1 1 1 1 1 1 1 1 1 1 1 1 1 1 0 0
1 1 1 1 1 1 1 1 1 1 1 1 1 1 1 1 1 1 1 1 1 1 1 1 1 1 1 1 1 1 1 1 1 1 1 1 1 1 0 0 0 0 0 0
1 1 1 1 1 1 1 1 1 1 1 1 1 1 1 0 0 0 0 0 0 0 0 0 1 1 1 1 1 1 1 1 1 1 1 1 0 0 0 0 0 0 0 0
1 1 0 0 0 0 0 1 1 1 1 1 1 0 0 0 0 0 0 0 0 0 0 0 1 1 1 1 1 1 0 0 0 0 1 1 0 0 0 0 0 0 0 0
0 0 0 0 0 0 0 0 1 1 1 1 0 0 0 0 0 0 0 0 0 0 0 0 0 0 0 0 0 0 0 0 0 0 0 0 0 0 0 0 0 0 0 0
0 0 0 0 0 0 0 0 0 0 0 0 0 0 0 0 0 0 0 0 0 0 0 0 0 0 0 0 0 0 0 0 0 0 0 0 0 0 0 0 0 0 0 0
0 0 0 0 0 0 0 0 0 0 0 0 0 0 0 0 0 0 0 0 0 0 0 0 0 0 0 0 0 0 0 0 0 0 0 0 0 0 0 0 0 0 0 0
0 0 0 0 0 0 0 0 0 0 0 0 0 0 0 0 0 0 0 0 0 0 0 0 0 0 0 0 0 0 0 0 0 0 0 0 0 0 0 0 0 0 0 0
0 0 0 0 0 0 0 0 0 0 0 0 0 0 0 0 0 0 0 0 0 0 0 0 0 0 0 0 0 0 0 0 0 0 0 0 0 0 0 0 0 0 0 0
0 0 0 0 0 0 0 0 0 0 0 0 0 0 0 0 0 0 0 0 0 0 0 0 0 0 0 0 0 0 0 0 0 0 0 0 0 0 0 0 0 0 0 0
0 0 0 0 0 0 0 0 0 0 0 0 0 0 0 0 0 0 0 0 0 0 0 0 0 0 0 0 0 0 0 0 0 0 0 0 0 0 0 0 0 0 0 0
0 0 0 0 0 0 0 0 0 0 0 0 0 0 0 0 0 0 0 0 0 0 0 0 0 0 0 0 0 0 0 0 0 0 0 0 0 0 0 0 0 0 0 0
0 0 0 0 0 0 0 0 0 0 0 0 0 0 0 0 0 0 0 0 0 0 0 0 0 0 0 0 0 0 0 0 0 0 0 0 0 0 0 0 0 0 0 0
0 0 0 0 0 0 0 0 0 0 0 0 0 0 0 0 0 0 0 0 0 0 0 0 0 0 0 0 0 0 0 0 0 0 0 0 0 0 0 0 0 0 0 0
0 0 0 0 0 0 0 0 0 0 0 0 0 0 0 0 0 0 0 0 0 0 0 0 0 0 0 0 0 0 0 0 0 0 0 0 0 0 0 0 0 0 0 0
0 0 0 0 0 0 0 0 0 0 0 0 0 0 0 0 0 0 0 0 0 0 0 0 0 0 0 0 0 0 0 0 0 0 0 0 0 0 0 0 0 0 0 0
0 0 0 0 0 0 0 0 0 0 0 0 0 0 0 0 0 0 0 0 0 0 0 0 0 0 0 0 0 0 0 0 0 0 0 0 0 0 0 0 0 0 0 0
0 0 0 0 0 0 0 0 0 0 0 0 0 0 0 0 0 0 0 0 0 0 0 0 0 0 0 0 0 0 0 0 0 0 0 0 0 0 0 0 0 0 0 0
Wind_Speed
12 10 12 14 15 16 16 14 12 6 7 7 5 4 2 5 7 7 7 7 7 6 6 5 6 6 7 7 7 7 8 8 8 8 7 7 7 8 7 7 8 7 6 6
12 13 14 14 17 17 16 15 14 8 5 5 4 4 6 5 6 6 5 5 6 7 7 7 6 6 6 6 6 6 6 7 7 7 7 7 8 7 7 7 6 6 6 6
11 12 11 16 16 16 16 15 12 9 6 5 4 4 5 4 4 5 4 4 5 6 5 5 6 5 5 5 5 5 5 4 5 7 7 7 8 7 7 6 6 6 6 6
10 10 14 11 12 14 13 7 6 5 7 6 5 4 4 5 5 5 3 4 4 5 4 4 4 5 4 5 5 4 4 4 5 6 6 6 6 6 6 5 5 5 5 5
9 11 11 9 8 8 8 6 4 5 7 8 7 6 7 7 6 6 5 5 4 4 5 4 4 4 5 5 5 5 4 4 5 5 6 6 6 5 5 4 4 5 5 5
8 9 10 5 6 6 5 5 3 5 7 9 8 4 5 5 7 7 7 5 4 4 6 5 4 4 4 5 5 5 5 4 4 4 4 5 4 5 4 4 4 4 4 4
10 9 5 3 7 6 8 4 3 5 5 6 6 7 7 6 8 7 7 6 5 5 5 5 4 4 3 3 3 3 3 4 4 4 4 4 4 4 4 4 3 3 3 3
9 10 4 6 5 2 3 6 6 6 7 9 11 11 10 8 7 7 6 6 6 6 6 5 4 4 3 2 2 2 2 3 3 3 4 4 4 4 3 3 3 3 2 2
1 1 2 3 4 5 5 7 7 7 9 10 11 11 10 9 7 7 6 6 6 7 7 5 4 3 3 2 2 2 2 3 3 3 2 3 4 4 3 3 2 2 2 2
3 2 3 6 8 7 7 8 7 9 9 9 11 11 10 8 7 7 6 6 5 6 6 5 4 4 3 2 1 2 3 3 3 3 4 4 3 3 3 2 1 1 2 2
3 2 3 6 6 7 7 9 9 10 9 10 10 10 9 8 7 7 6 6 6 6 5 4 4 3 2 2 1 1 2 2 4 5 5 5 6 5 4 4 2 2 2 2
2 3 2 4 4 5 6 8 8 9 9 10 10 10 9 8 7 6 6 6 6 5 5 4 4 3 3 2 2 1 1 2 3 4 5 6 6 6 10 8 9 10 8 6
3 3 6 6 6 6 8 9 9 9 10 10 10 9 9 8 6 6 6 5 5 5 4 4 4 4 3 2 2 1 2 2 2 3 5 5 5 6 5 6 9 10 9 9
6 6 7 6 7 8 10 11 10 10 10 10 9 9 8 8 7 6 6 6 5 5 5 5 5 5 4 3 2 2 3 3 3 3 4 4 4 5 5 5 5 5 7 9
5 6 6 7 8 9 9 10 10 9 9 9 9 9 8 8 8 7 7 6 6 6 6 6 6 5 3 3 3 3 3 2 3 4 4 4 4 4 5 6 5 5 5 6
5 6 6 7 8 9 9 9 9 9 8 9 9 9 8 8 8 7 7 7 8 8 7 7 6 5 4 3 3 4 4 5 4 4 4 4 4 5 5 5 5 5 5 4
5 6 7 8 8 8 8 8 8 7 8 8 9 9 8 9 9 8 8 9 9 8 8 7 7 6 6 5 4 4 5 6 6 4 4 4 4 5 5 5 5 6 5 5
5 5 6 8 8 8 8 8 8 9 9 9 8 8 9 9 9 9 8 8 9 10 10 9 8 7 8 7 5 5 5 5 5 6 6 6 5 5 6 6 7 8 6 7
7 7 8 8 9 8 8 7 8 9 9 9 9 10 10 9 9 9 8 9 9 9 8 8 9 9 8 9 7 5 6 7 7 7 7 7 7 7 7 7 7 7 7 6
8 8 9 9 9 9 8 8 9 8 8 9 10 10 10 9 9 9 10 10 8 7 6 8 8 8 8 8 8 6 7 8 8 8 7 7 8 7 7 8 8 8 8 7
9 9 10 9 10 9 8 9 9 9 9 9 10 10 10 10 9 9 9 9 8 7 7 9 8 8 7 7 8 7 8 8 8 7 8 7 7 7 8 8 8 8 7 7
8 8 9 10 10 9 8 9 9 10 10 9 10 10 10 9 10 10 10 7 7 8 7 8 8 9 9 8 7 8 8 9 8 8 8 8 8 8 8 8 8 7 7 6
7 8 10 10 10 10 10 10 10 10 11 10 9 9 10 8 7 8 8 6 7 9 8 8 9 11 10 8 8 9 9 9 9 8 8 7 7 7 7 8 7 7 6 6
8 9 10 10 11 12 12 11 11 10 11 11 10 9 9 8 8 8 8 8 9 9 8 8 9 9 8 7 8 8 9 8 8 8 8 8 7 8 8 8 7 7 7 8
10 11 11 12 11 10 11 12 12 11 10 9 10 10 8 7 8 8 8 9 8 8 8 8 7 7 7 8 8 9 9 9 8 8 8 8 8 8 8 7 7 7 7 7
9 9 9 10 9 8 8 8 8 8 8 8 8 8 8 7 9 7 7 8 9 8 7 6 7 7 8 8 9 9 9 8 8 8 9 8 9 8 8 8 10 7 7 7
10 9 8 9 8 8 7 7 8 8 8 8 9 8 8 8 8 8 8 7 7 7 7 7 7 7 8 8 8 8 8 8 8 8 8 8 7 7 7 8 7 6 6 7
Wind_Direction
250 244 235 226 234 232 231 234 239 224 180 179 183 173 172 152 145 145 144 149 146 146 145 148 153 159 164 169 171 173 174 181 186 189 186 186 187 190 188 187 191 187 186 187
246 247 237 237 233 233 232 232 234 220 191 180 165 169 159 148 141 139 143 148 148 150 152 156 159 164 162 165 164 166 175 183 182 185 186 186 185 186 184 186 188 183 187 190
244 245 237 235 230 230 229 227 227 224 184 163 156 140 133 139 144 138 147 151 155 146 140 146 157 159 159 155 154 162 172 179 178 183 187 186 185 178 179 181 181 182 186 189
246 240 236 235 232 234 228 222 218 171 143 140 138 127 106 99 100 102 103 110 118 123 126 135 142 140 144 145 146 158 170 186 181 183 184 180 181 178 173 171 177 183 186 186
237 242 245 240 231 228 211 200 197 162 140 144 141 110 85 75 86 84 91 96 98 111 120 112 120 131 142 145 152 165 178 185 181 181 178 175 177 176 172 174 178 183 183 184
237 241 239 244 289 267 223 191 162 148 149 156 152 146 103 82 88 82 81 83 92 98 105 102 99 117 141 160 163 171 176 175 162 163 168 166 167 167 166 170 179 181 180 181
233 240 252 310 290 247 211 169 137 136 127 128 121 101 104 91 84 82 77 75 84 87 93 98 101 111 136 147 148 161 160 151 142 150 154 151 147 148 152 163 169 175 172 166
227 231 241 334 330 324 89 99 98 98 101 99 100 103 101 91 84 83 78 75 84 85 81 80 89 105 109 107 115 134 139 141 142 149 166 153 140 145 153 164 166 169 164 159
268 213 74 37 63 47 77 89 92 97 101 106 107 102 97 91 82 76 75 71 78 89 83 78 78 85 92 80 79 104 120 131 139 145 138 123 138 151 155 158 171 171 166 168
127 129 77 67 64 53 70 84 87 92 93 100 102 101 95 86 79 71 67 70 76 86 87 79 71 67 63 64 80 111 121 131 143 135 112 99 98 102 107 112 140 150 146 145
141 145 80 59 61 65 74 85 86 89 88 93 95 92 88 83 74 66 64 68 72 79 84 80 72 67 51 53 59 128 142 149 136 122 109 95 81 58 74 69 71 127 124 128
169 168 133 115 88 80 92 95 93 92 91 91 92 93 88 82 74 70 67 65 68 71 78 77 71 61 49 57 71 78 114 129 129 124 121 117 109 90 61 70 71 72 76 88
79 105 105 104 102 100 100 93 91 94 97 93 91 90 89 85 76 69 65 60 62 61 67 74 68 63 56 65 73 88 101 104 116 121 124 129 128 121 107 78 69 66 67 75
90 99 106 106 103 95 94 91 86 82 86 89 91 88 85 81 72 64 59 53 52 58 58 64 66 57 51 60 68 88 104 111 118 119 119 122 128 131 126 119 103 83 69 74
91 99 109 109 108 102 98 98 96 92 90 88 87 84 81 77 71 63 56 51 52 53 48 51 56 47 42 67 87 90 96 104 112 112 112 114 117 119 115 113 110 105 94 75
99 102 108 105 101 101 102 100 98 95 91 89 87 84 83 82 77 68 58 53 55 53 45 45 45 42 41 52 79 97 98 88 92 99 104 107 104 102 101 103 102 98 92 81
119 123 122 111 103 97 97 102 104 100 95 90 89 87 85 82 77 69 65 60 59 54 47 45 43 42 46 45 55 81 91 94 90 89 94 93 94 94 95 96 95 94 88 80
117 117 118 118 112 105 99 99 100 98 97 93 86 84 81 80 79 74 70 67 65 58 47 41 41 46 49 48 51 67 81 84 80 74 76 76 78 81 82 85 87 86 83 73
116 115 111 106 105 104 101 100 97 94 95 95 92 88 84 80 77 74 71 67 63 57 44 40 40 50 51 46 48 63 68 75 77 77 77 73 69 70 74 75 74 73 74 72
116 113 111 108 104 99 98 99 98 94 95 100 97 91 85 79 75 74 71 66 55 51 44 40 46 49 50 48 50 63 68 71 72 73 73 73 74 73 73 74 74 72 70 68
115 114 116 113 106 100 101 105 105 102 99 100 98 95 90 82 75 73 74 70 53 43 51 52 51 47 46 48 56 64 67 70 70 71 73 74 74 74 74 74 75 74 73 74
116 116 114 113 109 106 104 102 103 103 99 98 96 95 94 89 84 77 69 67 62 51 56 56 53 45 41 53 64 66 67 68 67 65 65 67 69 71 72 73 74 72 68 67
117 114 113 114 114 109 102 100 99 97 94 92 90 90 87 81 80 83 79 67 69 66 66 60 48 44 44 59 65 68 68 68 69 71 70 70 71 73 74 74 72 72 69 67
111 110 114 116 115 111 106 103 100 98 97 94 89 89 90 88 84 81 84 83 73 73 72 61 52 51 56 65 67 70 70 69 69 71 71 71 71 71 72 71 70 69 68 66
112 114 116 118 113 110 110 110 106 103 99 94 91 87 83 83 88 89 89 88 88 86 80 70 57 56 68 70 70 71 70 66 65 66 68 66 64 65 65 66 65 64 63 60
109 109 108 106 104 108 111 110 108 104 100 98 94 93 92 93 94 94 93 92 89 86 82 80 76 73 72 72 73 72 73 74 69 67 68 68 68 66 64 62 62 59 58 58
111 111 111 109 107 105 104 104 103 101 100 100 99 97 97 97 97 95 94 91 87 82 80 79 77 75 74 74 75 74 73 72 70 69 70 70 69 67 66 66 64 61 58 57